PBO Station Position Time Series. Reference Frame : NAM14
Format Version,1.1.1
4-character ID,P419
Station name,Rock_Peak_WA2008
Begin Date, 2008-07-26
End Date, 2023-06-26
Release Date, 2023-06-27
Reference position, 47.4092986417 North Latitude, -123.3665263829 East Longitude, 935.98124 meters elevation,
Date, North (mm), East (mm), Vertical (mm), North Std. Deviation (mm), East Std. Deviation (mm),              Vertical Std. Deviation (mm), Quality,
2008-07-26,0.00, 0.00, 0.00, 2.23, 1.51, 6.84, repro,
2008-07-27,-1.32, 0.27, -2.96, 2.26, 1.51, 6.91, repro,
2008-07-28,-0.91, 0.68, 3.20, 2.36, 1.56, 7.10, repro,
2008-07-29,-1.22, -1.19, 1.79, 2.30, 1.54, 7.09, repro,
2008-07-30,-0.68, 2.06, -2.28, 2.30, 1.54, 7.13, repro,
2008-07-31,-1.32, 0.17, 2.07, 2.22, 1.50, 6.87, repro,
2008-08-01,-1.77, 1.73, -0.16, 2.24, 1.50, 6.86, repro,
2008-08-02,-1.01, 1.34, 4.36, 2.24, 1.51, 6.89, repro,
2008-08-03,-0.01, 0.44, -1.85, 2.29, 1.56, 7.12, repro,
2008-08-04,-0.91, 0.28, -4.27, 2.23, 1.52, 6.89, repro,
2008-08-05,-1.87, 0.88, 2.19, 2.22, 1.50, 6.82, repro,
2008-08-06,-0.90, -0.19, -1.13, 2.28, 1.51, 6.90, repro,
2008-08-07,-1.28, 1.00, 2.86, 2.39, 1.60, 7.28, repro,
2008-08-08,-0.68, -0.11, -1.18, 2.36, 1.57, 7.19, repro,
2008-08-09,-1.04, -1.08, -2.99, 2.30, 1.53, 7.00, repro,
2008-08-10,-0.21, 0.08, -4.62, 2.31, 1.53, 7.01, repro,
2008-08-11,0.38, -0.32, -6.34, 2.29, 1.52, 6.95, repro,
2008-08-12,-1.15, 0.43, -2.59, 2.37, 1.57, 7.24, repro,
2008-08-13,-0.40, -0.13, -1.13, 2.30, 1.53, 7.00, repro,
2008-08-14,-0.82, 0.48, -1.93, 2.30, 1.53, 7.00, repro,
2008-08-15,0.08, 1.24, -1.06, 2.31, 1.53, 7.04, repro,
2008-08-16,-1.12, 0.17, 2.81, 2.29, 1.52, 6.92, repro,
2008-08-17,-0.65, -1.87, 7.47, 2.31, 1.53, 7.04, repro,
2008-08-18,-1.36, -0.53, 3.22, 2.30, 1.53, 6.97, repro,
2008-08-19,-2.48, 0.67, 7.25, 2.33, 1.53, 7.06, repro,
2008-08-20,-1.01, 0.49, -3.45, 2.31, 1.54, 7.01, repro,
2008-08-21,-1.46, 1.77, 1.23, 2.30, 1.52, 6.95, repro,
2008-08-22,-0.78, -0.19, 0.79, 2.37, 1.56, 7.10, repro,
2008-08-23,-0.88, -0.71, 4.45, 2.31, 1.52, 6.97, repro,
2008-08-24,-1.33, -1.43, -2.69, 2.33, 1.56, 7.14, repro,
2008-08-25,-1.01, 0.13, -2.28, 2.31, 1.54, 7.02, repro,
2008-08-26,-2.60, -0.09, -0.10, 2.31, 1.53, 7.01, repro,
2008-08-27,-2.50, -0.97, 2.19, 2.31, 1.54, 7.01, repro,
2008-08-28,-2.18, 2.12, 3.79, 2.47, 1.63, 7.35, repro,
2008-08-29,-0.78, 2.89, -0.63, 2.34, 1.55, 7.05, repro,
2008-08-30,-1.41, 0.46, -1.30, 2.34, 1.56, 7.09, repro,
2008-08-31,-0.50, 0.63, -0.96, 2.32, 1.55, 7.06, repro,
2008-09-01,-1.07, -0.82, -12.32, 2.33, 1.54, 7.04, repro,
2008-09-02,-0.46, 0.14, -7.92, 2.31, 1.54, 7.02, repro,
2008-09-03,0.40, 0.17, -2.79, 2.32, 1.55, 7.04, repro,
2008-09-04,-0.49, 0.42, 0.59, 2.49, 1.65, 7.62, repro,
2008-09-05,-0.55, 0.21, -3.23, 2.40, 1.60, 7.25, repro,
2008-09-06,-1.73, 0.81, -5.21, 2.32, 1.55, 7.08, repro,
2008-09-07,-0.62, 0.70, -3.57, 2.32, 1.55, 7.10, repro,
2008-09-08,-0.25, 0.53, -4.79, 2.31, 1.55, 7.03, repro,
2008-09-09,0.92, 0.32, 2.15, 2.40, 1.55, 7.13, repro,
2008-09-10,1.81, 0.53, -6.35, 2.38, 1.58, 7.18, repro,
2008-09-11,-0.88, 1.03, 0.41, 2.44, 1.64, 7.43, repro,
2008-09-12,-0.69, -0.02, 6.26, 2.31, 1.56, 7.11, repro,
2008-09-13,0.29, 1.07, -1.46, 2.36, 1.58, 7.16, repro,
2008-09-14,0.77, 0.75, 0.62, 2.37, 1.59, 7.17, repro,
2008-09-15,-0.30, 1.40, 1.78, 2.34, 1.54, 7.03, repro,
2008-09-16,-0.13, 0.94, -1.30, 2.33, 1.57, 7.16, repro,
2008-09-17,0.97, 0.75, -3.18, 2.39, 1.60, 7.33, repro,
2008-09-18,-0.57, 0.50, -3.72, 2.29, 1.53, 6.99, repro,
2008-09-19,0.12, -0.22, -2.62, 2.30, 1.53, 6.98, repro,
2008-09-20,0.30, 0.06, 5.21, 2.37, 1.57, 7.11, repro,
2008-09-21,0.22, 0.59, -0.24, 2.33, 1.55, 7.09, repro,
2008-09-22,-0.62, 1.48, -1.73, 2.28, 1.52, 6.93, repro,
2008-09-23,0.35, 0.90, -5.42, 2.28, 1.52, 6.96, repro,
2008-09-24,-1.13, 0.94, -0.10, 2.41, 1.63, 7.39, repro,
2008-09-25,-0.69, 1.21, -2.82, 2.40, 1.58, 7.19, repro,
2008-09-26,-0.13, 0.71, -6.07, 2.32, 1.51, 6.92, repro,
2008-09-27,0.03, 1.83, -3.16, 2.35, 1.56, 7.02, repro,
2008-09-28,0.58, 0.96, -5.34, 2.29, 1.52, 6.95, repro,
2008-09-29,0.86, 2.24, -2.31, 2.34, 1.57, 7.05, repro,
2008-09-30,0.61, -0.09, -0.41, 2.30, 1.53, 6.98, repro,
2008-10-01,0.35, -0.05, -2.19, 2.32, 1.52, 6.98, repro,
2008-10-02,1.53, 2.34, 3.05, 2.37, 1.56, 7.11, repro,
2008-10-03,0.54, 2.88, 0.39, 2.41, 1.62, 7.27, repro,
2008-10-04,-1.10, 0.71, 0.23, 2.29, 1.52, 6.91, repro,
2008-10-05,0.12, 1.25, 1.52, 2.30, 1.52, 6.94, repro,
2008-10-06,-0.31, 0.38, -1.71, 2.31, 1.52, 6.98, repro,
2008-10-07,1.37, -0.14, -4.73, 2.43, 1.57, 7.29, repro,
2008-10-08,1.04, 2.84, -13.04, 2.32, 1.54, 7.00, repro,
2008-10-09,0.46, 0.93, -12.43, 2.23, 1.50, 6.79, repro,
2008-10-10,0.96, 0.41, -11.19, 2.25, 1.51, 6.88, repro,
2008-10-11,-0.04, 0.62, -5.21, 2.26, 1.51, 6.92, repro,
2008-10-12,-1.34, 1.50, -6.83, 2.26, 1.51, 6.92, repro,
2008-10-13,1.25, 2.40, -6.84, 2.27, 1.51, 6.92, repro,
2008-10-14,-0.15, 2.42, -6.72, 2.23, 1.51, 6.85, repro,
2008-10-15,-0.32, 1.10, -7.58, 2.32, 1.53, 7.08, repro,
2008-10-16,1.04, 1.91, -10.80, 2.32, 1.55, 7.11, repro,
2008-10-17,-0.73, 3.04, -9.49, 2.25, 1.51, 6.93, repro,
2008-10-18,-0.04, 0.65, -6.55, 2.27, 1.51, 6.94, repro,
2008-10-19,-0.01, 0.49, -11.52, 2.24, 1.51, 6.91, repro,
2008-10-20,-0.31, 0.89, -4.16, 2.26, 1.51, 6.92, repro,
2008-10-21,1.80, 3.39, -5.36, 2.31, 1.55, 7.10, repro,
2008-10-22,0.15, 1.63, -8.10, 2.25, 1.52, 6.97, repro,
2008-10-23,-0.11, 1.63, -4.96, 2.32, 1.52, 7.08, repro,
2008-10-24,0.34, 0.49, -3.07, 2.25, 1.51, 6.91, repro,
2008-10-25,0.40, 0.30, -2.93, 2.25, 1.52, 6.94, repro,
2008-10-26,0.31, 1.09, -9.62, 2.24, 1.51, 6.90, repro,
2008-10-27,1.12, 1.32, -8.32, 2.24, 1.51, 6.92, repro,
2008-10-28,-0.04, 1.07, -8.97, 2.35, 1.54, 7.01, repro,
2008-10-29,0.20, 0.99, -3.32, 2.42, 1.57, 7.11, repro,
2008-10-30,-0.72, 0.33, -1.87, 2.25, 1.51, 6.88, repro,
2008-10-31,0.42, 1.99, -12.88, 2.31, 1.58, 7.15, repro,
2008-11-01,-1.26, 1.42, -4.06, 2.29, 1.57, 7.17, repro,
2008-11-02,-0.25, -0.44, 5.02, 2.27, 1.55, 7.09, repro,
2008-11-03,0.87, 0.95, -1.44, 2.27, 1.53, 7.00, repro,
2008-11-04,0.06, 1.65, -1.01, 2.27, 1.54, 7.03, repro,
2008-11-05,-0.48, 0.69, -4.26, 2.29, 1.58, 7.16, repro,
2008-11-06,-0.77, 0.56, -16.44, 2.28, 1.58, 7.17, repro,
2008-11-07,-1.02, 1.44, -13.93, 2.30, 1.57, 7.19, repro,
2008-11-08,0.14, 1.38, -15.94, 2.28, 1.55, 7.05, repro,
2008-11-09,-0.78, 1.88, -8.50, 2.28, 1.55, 7.07, repro,
2008-11-10,0.66, 1.01, -0.71, 2.27, 1.57, 7.09, repro,
2008-11-11,0.10, 3.99, -6.60, 2.37, 1.73, 7.81, repro,
2008-11-12,-0.87, 0.48, -6.52, 2.27, 1.54, 7.03, repro,
2008-11-13,0.81, 1.58, -3.77, 2.35, 1.61, 7.32, repro,
2008-11-14,0.08, 2.42, -14.41, 2.36, 1.66, 7.47, repro,
2008-11-15,-1.06, 4.36, -16.68, 2.37, 1.67, 7.55, repro,
2008-11-16,0.40, 2.90, -10.65, 2.30, 1.62, 7.31, repro,
2008-11-17,-1.02, 2.74, -11.70, 2.42, 1.72, 7.70, repro,
2008-11-18,0.97, 1.49, -13.60, 2.56, 1.87, 8.54, repro,
2008-11-19,-0.61, 2.10, -14.15, 2.35, 1.64, 7.41, repro,
2008-11-20,-0.61, 2.14, -13.92, 2.35, 1.62, 7.33, repro,
2008-11-21,-1.20, 4.16, -11.07, 2.46, 1.76, 8.03, repro,
2008-12-02,0.20, 2.36, -6.22, 2.31, 1.60, 7.15, repro,
2008-12-03,0.42, 2.01, -13.95, 2.34, 1.63, 7.27, repro,
2008-12-04,0.34, 4.19, -16.92, 2.39, 1.75, 7.86, repro,
2008-12-05,1.05, 2.76, -6.22, 2.35, 1.71, 7.50, repro,
2008-12-06,1.30, 1.11, -6.00, 2.53, 1.89, 8.47, repro,
2008-12-07,1.19, 2.04, -10.80, 2.34, 1.70, 7.66, repro,
2008-12-08,1.45, 1.76, -8.96, 2.27, 1.65, 7.42, repro,
2008-12-09,2.42, 2.68, -21.39, 2.30, 1.58, 7.11, repro,
2008-12-10,1.23, 4.00, -24.86, 2.31, 1.59, 7.17, repro,
2008-12-11,0.77, 1.95, -20.11, 2.41, 1.67, 7.55, repro,
2008-12-12,0.62, 1.24, -9.93, 2.47, 1.80, 8.10, repro,
2008-12-13,1.18, 1.89, -7.18, 2.33, 1.65, 7.41, repro,
2008-12-14,1.02, 3.84, -13.16, 2.24, 1.51, 6.89, repro,
2008-12-15,0.20, 5.37, -11.95, 2.25, 1.55, 7.02, repro,
2008-12-16,0.58, 4.54, -14.02, 2.23, 1.50, 6.88, repro,
2008-12-17,-0.08, 1.22, -8.23, 2.31, 1.53, 7.04, repro,
2008-12-18,2.05, 0.52, -10.64, 2.25, 1.51, 6.96, repro,
2008-12-19,1.05, 1.73, -20.53, 2.30, 1.53, 7.13, repro,
2008-12-20,0.26, 2.36, -17.90, 2.27, 1.56, 7.09, repro,
2008-12-21,-0.56, 3.39, -15.21, 2.28, 1.55, 7.10, repro,
2008-12-22,1.00, 3.39, -12.34, 2.25, 1.52, 6.93, repro,
2008-12-23,0.50, 2.94, -11.47, 2.25, 1.52, 6.97, repro,
2008-12-24,0.48, 2.40, -10.20, 2.25, 1.52, 6.93, repro,
2008-12-25,-0.70, 3.50, -7.11, 2.24, 1.52, 6.91, repro,
2008-12-26,0.32, 1.82, -5.74, 2.24, 1.51, 6.92, repro,
2008-12-27,-2.38, 0.97, -9.13, 2.24, 1.52, 6.92, repro,
2008-12-28,0.52, 1.27, -14.73, 2.24, 1.52, 6.94, repro,
2008-12-29,-0.58, 1.96, -9.96, 2.25, 1.52, 6.98, repro,
2008-12-30,-0.46, 1.59, -17.58, 2.24, 1.51, 6.93, repro,
2008-12-31,-2.10, 4.16, -16.93, 2.23, 1.50, 6.89, repro,
2009-01-01,0.12, 2.38, -8.06, 2.24, 1.50, 6.91, repro,
2009-01-02,1.42, 1.41, -15.79, 2.24, 1.51, 6.92, repro,
2009-01-03,0.14, 2.18, -13.64, 2.24, 1.52, 6.99, repro,
2009-01-04,-0.13, 0.39, -14.92, 2.24, 1.52, 6.95, repro,
2009-01-05,-1.56, 2.33, -9.95, 2.23, 1.52, 6.92, repro,
2009-01-06,-2.44, 1.88, -13.70, 2.25, 1.51, 6.93, repro,
2009-01-07,-2.05, 1.68, -17.09, 2.47, 1.67, 7.58, repro,
2009-01-08,-0.67, 3.95, -13.57, 2.29, 1.56, 7.14, repro,
2009-01-09,0.33, 4.43, -23.90, 2.30, 1.57, 7.23, repro,
2009-01-10,0.45, 6.85, -29.34, 2.25, 1.52, 6.96, repro,
2009-01-11,-1.24, 4.96, -22.83, 2.24, 1.52, 6.93, repro,
2009-01-12,-0.59, 4.52, -23.23, 2.24, 1.51, 6.91, repro,
2009-01-13,-0.39, 3.03, -21.24, 2.24, 1.52, 6.93, repro,
2009-01-14,0.33, 3.34, -18.44, 2.24, 1.53, 6.99, repro,
2009-01-15,0.57, 3.75, -18.56, 2.22, 1.53, 6.98, repro,
2009-01-16,0.06, 3.47, -18.28, 2.23, 1.52, 6.95, repro,
2009-01-17,1.36, 3.74, -17.43, 2.22, 1.52, 6.92, repro,
2009-01-18,1.41, 3.10, -19.47, 2.23, 1.51, 6.92, repro,
2009-01-19,0.91, 3.71, -20.84, 2.23, 1.52, 6.96, repro,
2009-01-20,0.93, 3.55, -19.28, 2.23, 1.53, 7.02, repro,
2009-01-21,0.94, 4.07, -16.10, 2.22, 1.52, 6.95, repro,
2009-01-22,0.79, 3.58, -12.46, 2.22, 1.52, 6.96, repro,
2009-01-23,0.57, 3.31, -20.43, 2.23, 1.52, 6.94, repro,
2009-01-24,1.03, 3.66, -21.74, 2.21, 1.51, 6.93, repro,
2009-01-25,0.78, 3.77, -24.44, 2.22, 1.52, 6.98, repro,
2009-01-26,0.91, 5.30, -24.62, 2.23, 1.53, 7.01, repro,
2009-01-27,-0.39, 4.11, -18.21, 2.21, 1.52, 6.93, repro,
2009-01-28,-1.28, 5.84, -19.06, 2.22, 1.52, 6.94, repro,
2009-01-29,-0.20, 4.31, -21.42, 2.22, 1.51, 6.93, repro,
2009-01-30,1.26, 4.20, -20.32, 2.21, 1.52, 6.91, repro,
2009-01-31,1.26, 4.71, -13.64, 2.23, 1.52, 6.98, repro,
2009-02-01,0.03, 3.50, -19.59, 2.21, 1.52, 6.94, repro,
2009-02-02,0.17, 4.83, -20.79, 2.21, 1.52, 6.96, repro,
2009-02-03,1.19, 3.46, -25.52, 2.27, 1.56, 7.08, repro,
2009-02-04,0.48, 3.65, -19.13, 2.21, 1.53, 6.97, repro,
2009-02-05,1.03, 4.00, -14.25, 2.27, 1.56, 7.09, repro,
2009-02-06,-0.29, 3.44, -18.45, 2.32, 1.61, 7.28, repro,
2009-02-07,0.26, 4.15, -18.93, 2.25, 1.56, 7.07, repro,
2009-02-08,0.28, 3.55, -10.61, 2.23, 1.52, 6.95, repro,
2009-02-09,-0.60, 4.36, -10.20, 2.25, 1.56, 7.07, repro,
2009-02-10,-0.32, 3.01, -15.85, 2.21, 1.51, 6.90, repro,
2009-02-11,1.80, 4.27, -31.14, 2.31, 1.62, 7.33, repro,
2009-02-12,0.06, 2.87, -14.97, 2.26, 1.56, 7.12, repro,
2009-02-13,-0.10, 3.50, -16.20, 2.26, 1.56, 7.05, repro,
2009-02-14,0.06, 2.99, -15.78, 2.21, 1.52, 6.93, repro,
2009-02-15,-0.80, 2.81, -13.11, 2.23, 1.55, 7.07, repro,
2009-02-16,-0.50, 2.89, -6.35, 2.19, 1.52, 6.91, repro,
2009-02-17,0.29, 3.29, -5.93, 2.30, 1.58, 7.14, repro,
2009-02-18,0.65, 3.27, -14.73, 2.25, 1.56, 7.14, repro,
2009-02-19,-0.83, 3.78, -22.70, 2.25, 1.57, 7.15, repro,
2009-02-20,1.14, 3.20, -20.94, 2.23, 1.56, 7.09, repro,
2009-02-21,0.60, 3.76, -17.79, 2.23, 1.56, 7.12, repro,
2009-02-22,0.33, 3.27, -14.29, 2.20, 1.53, 6.98, repro,
2009-02-23,2.12, 3.17, -21.34, 2.29, 1.61, 7.29, repro,
2009-02-24,0.41, 5.83, -15.60, 2.36, 1.70, 7.49, repro,
2009-02-25,-0.17, 2.81, -24.91, 172.26, 198.76, 372.95, repro,
2009-02-26,0.14, 3.54, -14.27, 2.22, 1.56, 7.03, repro,
2009-02-27,0.76, 3.42, -16.78, 2.47, 1.77, 8.10, repro,
2009-02-28,-0.38, 3.40, -18.19, 2.25, 1.58, 7.20, repro,
2009-03-01,-0.05, 3.78, -18.27, 2.25, 1.58, 7.20, repro,
2009-03-02,0.10, 4.81, -19.92, 2.23, 1.57, 7.12, repro,
2009-03-03,0.00, 4.45, -13.49, 2.27, 1.61, 7.28, repro,
2009-03-04,0.14, 3.29, -13.11, 2.17, 1.53, 6.92, repro,
2009-03-05,1.13, 5.89, -19.73, 2.23, 1.56, 7.10, repro,
2009-03-06,1.28, 4.64, -16.07, 2.28, 1.63, 7.37, repro,
2009-03-07,1.38, 3.86, -12.26, 2.24, 1.56, 7.11, repro,
2009-03-08,0.72, 3.37, -14.66, 2.22, 1.56, 7.04, repro,
2009-03-09,1.26, 3.95, -22.20, 2.22, 1.56, 7.07, repro,
2009-03-10,0.37, 3.90, -20.61, 2.28, 1.61, 7.26, repro,
2009-03-11,0.87, 3.81, -18.17, 2.21, 1.54, 6.98, repro,
2009-03-12,1.02, 3.74, -21.15, 2.24, 1.58, 7.17, repro,
2009-03-13,0.07, 3.44, -15.45, 2.23, 1.57, 7.12, repro,
2009-03-14,-0.11, 3.36, -13.19, 2.18, 1.53, 6.89, repro,
2009-03-15,2.37, 2.44, -16.17, 2.18, 1.53, 6.90, repro,
2009-03-16,0.37, 3.12, -16.76, 2.21, 1.53, 6.96, repro,
2009-03-17,0.22, 3.47, -16.76, 2.25, 1.58, 7.12, repro,
2009-03-18,0.83, 4.89, -23.66, 2.21, 1.54, 6.97, repro,
2009-03-19,-2.08, 5.86, -16.10, 2.19, 1.52, 6.89, repro,
2009-03-20,-0.36, 5.64, -19.93, 2.19, 1.52, 6.86, repro,
2009-03-21,1.33, 3.72, -16.69, 2.19, 1.53, 6.93, repro,
2009-03-22,0.49, 3.68, -16.11, 2.21, 1.53, 6.95, repro,
2009-03-23,0.11, 3.93, -19.72, 2.21, 1.53, 6.94, repro,
2009-03-24,-0.28, 5.65, -17.96, 2.20, 1.54, 6.95, repro,
2009-03-25,-0.47, 3.67, -13.54, 2.20, 1.53, 6.92, repro,
2009-03-26,0.56, 3.13, -16.17, 2.19, 1.53, 6.90, repro,
2009-03-27,-0.21, 4.76, -13.35, 2.26, 1.55, 7.05, repro,
2009-03-28,0.07, 3.02, -15.52, 2.26, 1.55, 7.03, repro,
2009-03-29,0.24, 4.61, -13.72, 2.25, 1.55, 7.01, repro,
2009-03-30,-0.53, 2.96, -11.91, 2.25, 1.55, 6.99, repro,
2009-03-31,-0.59, 4.05, -15.58, 2.25, 1.55, 7.03, repro,
2009-04-01,1.15, 3.88, -14.13, 2.24, 1.55, 7.02, repro,
2009-04-02,-1.47, 4.48, -6.21, 2.30, 1.57, 7.14, repro,
2009-04-03,0.10, 4.27, -15.60, 2.32, 1.59, 7.22, repro,
2009-04-04,-0.20, 3.86, -15.62, 2.25, 1.55, 7.00, repro,
2009-04-05,0.81, 4.25, -20.91, 2.25, 1.54, 6.98, repro,
2009-04-06,0.69, 4.77, -18.95, 2.27, 1.55, 7.05, repro,
2009-04-07,1.01, 3.46, -15.03, 2.25, 1.54, 7.01, repro,
2009-04-08,-0.51, 3.38, -13.77, 2.27, 1.55, 7.04, repro,
2009-04-09,0.49, 3.23, -18.80, 2.30, 1.59, 7.17, repro,
2009-04-10,-0.37, 3.55, -15.36, 2.25, 1.53, 6.95, repro,
2009-04-11,0.01, 4.57, -15.98, 2.30, 1.58, 7.16, repro,
2009-04-12,2.07, 4.22, -26.28, 2.26, 1.54, 7.03, repro,
2009-04-13,-0.49, 3.47, -20.11, 2.29, 1.58, 7.16, repro,
2009-04-14,0.84, 3.83, -17.60, 2.26, 1.54, 7.03, repro,
2009-04-15,0.27, 3.98, -14.15, 2.26, 1.54, 7.00, repro,
2009-04-16,0.29, 3.85, -24.09, 2.28, 1.54, 7.05, repro,
2009-04-17,1.82, 4.71, -25.86, 2.29, 1.57, 7.15, repro,
2009-04-18,1.28, 4.55, -21.45, 2.27, 1.55, 7.08, repro,
2009-04-19,0.75, 4.62, -17.21, 2.26, 1.54, 7.08, repro,
2009-04-20,1.12, 4.73, -16.23, 2.25, 1.54, 7.00, repro,
2009-04-21,0.83, 3.57, -17.45, 2.33, 1.60, 7.25, repro,
2009-04-22,-1.24, 3.90, -11.13, 2.28, 1.54, 7.06, repro,
2009-04-23,0.13, 4.15, -13.41, 2.31, 1.57, 7.18, repro,
2009-04-24,0.52, 3.24, -13.38, 2.32, 1.59, 7.23, repro,
2009-04-25,1.76, 3.80, -15.56, 2.26, 1.53, 7.03, repro,
2009-04-26,-0.22, 3.30, -18.54, 2.26, 1.52, 6.97, repro,
2009-04-27,1.07, 3.51, -19.35, 2.33, 1.58, 7.18, repro,
2009-04-28,0.89, 2.97, -17.12, 2.31, 1.56, 7.14, repro,
2009-04-29,1.70, 3.25, -18.80, 2.33, 1.63, 7.34, repro,
2009-04-30,1.53, 4.31, -17.52, 2.37, 1.66, 7.47, repro,
2009-05-01,0.20, 3.27, -15.92, 2.26, 1.53, 6.99, repro,
2009-05-02,0.70, 3.96, -15.09, 2.28, 1.52, 7.01, repro,
2009-05-03,0.22, 3.47, -14.75, 2.28, 1.53, 7.01, repro,
2009-05-04,0.82, 4.31, -10.94, 2.29, 1.55, 7.09, repro,
2009-05-05,-0.87, 4.76, -14.68, 2.28, 1.54, 7.07, repro,
2009-05-06,-0.09, 2.96, -15.94, 2.27, 1.53, 7.02, repro,
2009-05-07,-4.10, 4.49, -24.24, 2.25, 1.52, 6.91, repro,
2009-05-08,-2.13, 2.86, -19.84, 2.25, 1.52, 6.93, repro,
2009-05-09,-1.69, 1.92, -18.70, 2.26, 1.52, 6.94, repro,
2009-05-10,-3.27, 1.39, -17.77, 2.24, 1.52, 6.93, repro,
2009-05-11,-2.20, 1.09, -14.39, 2.26, 1.53, 6.98, repro,
2009-05-12,-2.83, 2.34, -14.21, 2.36, 1.61, 7.31, repro,
2009-05-13,-1.65, 2.02, -14.35, 2.36, 1.60, 7.27, repro,
2009-05-14,-1.74, 1.22, -9.04, 2.24, 1.53, 6.93, repro,
2009-05-15,-2.60, 1.79, -10.51, 2.24, 1.53, 6.94, repro,
2009-05-16,-1.58, 1.36, -16.04, 2.25, 1.52, 6.95, repro,
2009-05-17,-2.25, 1.66, -17.47, 2.25, 1.53, 6.99, repro,
2009-05-18,-1.35, 2.10, -11.27, 2.26, 1.53, 7.00, repro,
2009-05-19,-2.63, -0.04, -6.55, 2.28, 1.56, 7.14, repro,
2009-05-20,-2.72, 1.39, -8.90, 2.25, 1.52, 6.95, repro,
2009-05-21,-3.15, 0.98, -16.09, 2.24, 1.52, 6.95, repro,
2009-05-22,-2.38, 2.24, -15.98, 2.27, 1.53, 7.04, repro,
2009-05-23,-1.62, 1.05, -13.61, 2.26, 1.53, 7.01, repro,
2009-05-24,-1.32, 1.89, -14.52, 2.27, 1.53, 7.04, repro,
2009-05-25,-1.74, 2.12, -12.17, 2.25, 1.53, 6.97, repro,
2009-05-26,-2.28, 2.17, -9.89, 2.23, 1.52, 6.93, repro,
2009-05-27,-2.45, 1.51, -12.68, 2.24, 1.52, 6.97, repro,
2009-05-28,-1.08, 1.19, -8.28, 2.25, 1.53, 7.03, repro,
2009-05-29,-0.45, 0.76, -11.29, 2.26, 1.54, 7.07, repro,
2009-05-30,-0.60, 1.87, -13.39, 2.27, 1.53, 7.09, repro,
2009-05-31,-2.11, 1.31, -11.38, 2.25, 1.53, 7.08, repro,
2009-06-01,-1.77, 1.56, -6.84, 2.24, 1.52, 7.02, repro,
2009-06-02,-1.67, 0.99, -13.22, 2.24, 1.51, 6.98, repro,
2009-06-03,-1.45, 1.39, -16.56, 2.25, 1.53, 7.02, repro,
2009-06-04,-0.71, 0.99, -11.78, 2.27, 1.54, 7.10, repro,
2009-06-05,-1.36, 0.39, -8.79, 2.25, 1.53, 7.06, repro,
2009-06-06,-1.21, 0.09, -9.21, 2.30, 1.55, 7.15, repro,
2009-06-07,-1.14, 1.30, -10.17, 2.24, 1.52, 6.98, repro,
2009-06-08,-1.16, 1.35, -11.89, 2.25, 1.51, 6.95, repro,
2009-06-09,-1.51, 1.65, -8.01, 2.27, 1.53, 7.04, repro,
2009-06-10,-2.07, 1.82, -8.41, 2.36, 1.63, 7.39, repro,
2009-06-11,-1.87, 1.06, -9.71, 2.26, 1.53, 7.03, repro,
2009-06-12,-2.55, 1.52, -11.98, 2.24, 1.53, 7.01, repro,
2009-06-13,-1.56, 1.33, -7.66, 2.24, 1.51, 6.93, repro,
2009-06-14,-1.26, 0.39, -11.87, 2.28, 1.58, 7.14, repro,
2009-06-15,-2.03, 1.19, -7.74, 2.25, 1.53, 7.02, repro,
2009-06-16,-2.20, 0.05, -8.98, 2.24, 1.53, 6.99, repro,
2009-06-17,-1.86, 1.20, -6.16, 2.30, 1.57, 7.18, repro,
2009-06-18,-1.56, 0.72, -4.76, 2.24, 1.52, 6.96, repro,
2009-06-19,-2.76, -0.55, -7.13, 2.25, 1.53, 7.00, repro,
2009-06-20,-1.49, 0.33, -9.70, 2.25, 1.54, 7.01, repro,
2009-06-21,-1.82, -0.83, 3.32, 2.24, 1.53, 6.99, repro,
2009-06-22,-2.41, 1.16, 0.62, 2.25, 1.54, 7.02, repro,
2009-06-23,-1.54, 1.17, -3.89, 2.24, 1.53, 6.99, repro,
2009-06-24,-2.93, 1.56, -3.70, 2.25, 1.53, 7.01, repro,
2009-06-25,-2.48, 1.73, -7.49, 2.24, 1.53, 6.97, repro,
2009-06-26,-1.74, 0.27, -8.51, 2.26, 1.55, 7.05, repro,
2009-06-27,-2.22, 0.38, -5.82, 2.27, 1.56, 7.09, repro,
2009-06-28,-2.62, 1.24, -9.58, 2.27, 1.55, 7.10, repro,
2009-06-29,-1.30, 1.47, -5.62, 2.26, 1.55, 7.07, repro,
2009-06-30,-1.88, 0.42, -7.57, 2.25, 1.56, 7.06, repro,
2009-07-01,-1.33, 0.54, -5.27, 2.27, 1.56, 7.11, repro,
2009-07-02,-1.51, 0.92, -4.87, 2.24, 1.53, 6.96, repro,
2009-07-03,-2.02, 2.15, -3.85, 2.30, 1.56, 7.15, repro,
2009-07-04,-5.88, 48.57, -3.31, 140.06, 251.71, 333.33, repro,
2009-07-05,-2.30, 0.69, -4.23, 2.23, 1.53, 6.94, repro,
2009-07-06,-1.72, 2.28, -1.87, 2.36, 1.64, 7.36, repro,
2009-07-07,-1.61, 0.05, -4.20, 2.24, 1.54, 6.99, repro,
2009-07-08,-1.20, 1.07, -4.14, 2.27, 1.54, 7.05, repro,
2009-07-09,-1.08, 0.73, -6.62, 2.25, 1.54, 6.98, repro,
2009-07-10,-0.83, 1.40, -4.86, 2.23, 1.53, 6.92, repro,
2009-07-11,-1.40, 2.25, 1.12, 2.24, 1.54, 6.96, repro,
2009-07-12,-3.05, 0.75, -2.68, 2.23, 1.54, 6.97, repro,
2009-07-13,-3.24, 0.23, -5.66, 2.31, 1.59, 7.24, repro,
2009-07-14,-1.19, 1.06, -3.75, 2.26, 1.54, 7.02, repro,
2009-07-15,-1.69, 0.73, -2.38, 2.22, 1.53, 6.93, repro,
2009-07-16,-1.53, 0.82, -4.89, 2.21, 1.53, 6.93, repro,
2009-07-17,-2.29, 0.49, -3.03, 2.22, 1.53, 6.92, repro,
2009-07-18,-1.56, -0.30, -2.36, 2.31, 1.58, 7.18, repro,
2009-07-19,-1.40, 0.06, -7.87, 2.24, 1.54, 6.99, repro,
2009-07-20,-1.20, 0.21, -6.35, 2.24, 1.53, 6.94, repro,
2009-07-21,-2.05, 1.67, -0.18, 2.22, 1.53, 6.90, repro,
2009-07-22,-1.65, 1.85, 1.21, 2.22, 1.54, 6.94, repro,
2009-07-23,-2.55, 0.89, -0.49, 2.24, 1.54, 6.95, repro,
2009-07-24,-2.54, 0.51, -5.94, 2.26, 1.58, 7.21, repro,
2009-07-25,-2.77, 2.02, -1.69, 2.31, 1.57, 7.21, repro,
2009-07-26,-2.85, 1.23, -7.51, 2.29, 1.56, 7.15, repro,
2009-07-27,-2.23, 1.41, -9.10, 2.23, 1.53, 6.96, repro,
2009-07-28,-0.77, 1.90, 2.00, 2.28, 1.57, 7.14, repro,
2009-07-29,-0.97, 2.31, -0.10, 2.31, 1.59, 7.22, repro,
2009-07-30,-3.71, 1.60, 2.14, 2.73, 1.76, 7.99, repro,
2009-07-31,-1.96, 1.30, -1.48, 2.31, 1.57, 7.13, repro,
2009-08-01,-1.41, 0.64, -3.46, 2.24, 1.54, 6.99, repro,
2009-08-02,-1.07, 0.75, -5.14, 2.25, 1.55, 7.07, repro,
2009-08-03,0.60, -0.28, -3.24, 2.25, 1.55, 7.01, repro,
2009-08-04,-1.02, 0.64, -4.29, 2.25, 1.54, 7.03, repro,
2009-08-05,-1.95, 0.50, -4.90, 2.31, 1.56, 7.14, repro,
2009-08-06,-1.96, 0.29, -1.23, 2.24, 1.54, 6.97, repro,
2009-08-07,-0.90, 0.56, -1.22, 2.58, 1.88, 8.67, repro,
2009-08-08,-2.73, 0.73, -4.11, 2.31, 1.59, 7.20, repro,
2009-08-09,-2.04, 1.16, -4.58, 2.27, 1.55, 7.03, repro,
2009-08-10,-1.11, -0.46, -9.36, 2.26, 1.55, 6.99, repro,
2009-08-11,-1.52, 0.11, -8.70, 2.25, 1.54, 6.96, repro,
2009-08-12,-1.43, 0.55, -6.11, 2.26, 1.54, 6.99, repro,
2009-08-13,-1.35, -0.73, -1.85, 2.37, 1.60, 7.28, repro,
2009-08-14,-1.54, 0.06, -0.96, 2.31, 1.58, 7.12, repro,
2009-08-15,-1.25, -0.19, -4.60, 2.31, 1.56, 7.09, repro,
2009-08-16,-0.16, 0.14, -1.82, 2.29, 1.56, 7.02, repro,
2009-08-17,-1.60, 1.07, -4.38, 2.26, 1.55, 6.97, repro,
2009-08-18,0.16, 0.27, -2.09, 2.34, 1.57, 7.16, repro,
2009-08-19,-0.35, 0.19, 1.52, 2.29, 1.56, 7.10, repro,
2009-08-20,-0.88, -0.82, -1.87, 2.28, 1.56, 7.06, repro,
2009-08-21,-0.82, -0.53, -4.44, 2.33, 1.59, 7.21, repro,
2009-08-22,-0.64, 1.89, 0.78, 2.40, 1.65, 7.49, repro,
2009-08-23,-1.28, 0.62, 1.11, 2.57, 1.74, 8.24, repro,
2009-08-24,-2.48, 1.27, 1.45, 2.34, 1.60, 7.25, repro,
2009-08-25,-2.58, 1.37, 6.12, 2.45, 1.71, 7.63, repro,
2009-08-26,-1.40, 1.46, -0.39, 2.31, 1.59, 7.16, repro,
2009-08-27,0.21, 0.39, -3.41, 2.32, 1.59, 7.17, repro,
2009-08-28,-1.32, 1.46, -4.59, 2.28, 1.54, 6.98, repro,
2009-08-29,-1.78, 1.51, -6.79, 2.29, 1.56, 7.05, repro,
2009-08-30,-1.04, 1.41, -2.44, 2.27, 1.55, 7.03, repro,
2009-08-31,-1.77, 0.30, -4.16, 2.27, 1.55, 7.03, repro,
2009-09-01,-1.72, 1.48, -3.76, 2.27, 1.55, 7.01, repro,
2009-09-02,-2.38, 0.94, -0.24, 2.37, 1.69, 7.73, repro,
2009-09-03,-0.29, 1.05, -3.48, 2.25, 1.56, 7.04, repro,
2009-09-04,-2.01, 0.36, -0.74, 2.28, 1.56, 7.10, repro,
2009-09-05,0.20, 1.29, 3.79, 2.27, 1.59, 7.15, repro,
2009-09-06,0.36, -0.67, -9.81, 2.42, 1.63, 7.53, repro,
2009-09-07,-0.56, 1.89, -4.70, 2.28, 1.56, 7.13, repro,
2009-09-08,-0.82, 1.36, -3.50, 2.28, 1.55, 7.05, repro,
2009-09-09,-0.04, 0.76, 1.25, 2.33, 1.62, 7.26, repro,
2009-09-10,-1.02, 1.36, -8.60, 2.29, 1.56, 7.11, repro,
2009-09-11,-0.23, 1.57, -8.17, 2.29, 1.57, 7.12, repro,
2009-09-12,-0.35, 0.44, -0.77, 2.29, 1.55, 7.05, repro,
2009-09-13,-0.45, 0.64, 4.93, 2.25, 1.56, 7.08, repro,
2009-09-14,-1.84, 1.36, -0.82, 2.32, 1.59, 7.12, repro,
2009-09-15,-2.12, 0.13, -1.69, 2.26, 1.55, 7.03, repro,
2009-09-16,0.07, 0.21, -3.21, 2.27, 1.55, 7.05, repro,
2009-09-17,-2.12, 1.75, -7.83, 2.29, 1.61, 7.26, repro,
2009-09-18,-1.31, 0.34, -0.22, 2.28, 1.59, 7.26, repro,
2009-09-19,0.19, 0.46, -1.00, 2.24, 1.54, 6.99, repro,
2009-09-20,-1.44, 0.44, -4.68, 2.22, 1.54, 6.99, repro,
2009-09-21,-1.92, 1.10, -4.96, 2.24, 1.55, 7.02, repro,
2009-09-22,-0.44, 0.04, -2.74, 2.28, 1.59, 7.12, repro,
2009-09-23,0.55, 0.66, -2.23, 2.31, 1.64, 7.34, repro,
2009-09-24,-0.51, 0.12, -4.08, 2.23, 1.54, 6.96, repro,
2009-09-25,-0.19, 0.83, -1.40, 2.25, 1.57, 7.08, repro,
2009-09-26,-0.02, 0.81, -4.62, 2.25, 1.55, 7.02, repro,
2009-09-27,-1.52, 0.84, -1.46, 2.24, 1.55, 7.03, repro,
2009-09-28,-1.45, 0.10, 0.76, 2.33, 1.57, 7.17, repro,